Time,TemperatureF,DewpointF,PressureIn,WindDirection,WindDirectionDegrees,WindSpeedMPH,WindSpeedGustMPH,Humidity,HourlyPrecipIn,Conditions,Clouds,dailyrainin,SoftwareType,DateUTC
2013-07-02 00:22:00,52.0,43.0,30.16,NE,37,0.0,2.0,71,0.00,,,0.00,,2013-07-02 04:22:00,
2013-07-02 00:32:00,52.0,43.0,30.16,NE,37,0.0,2.0,71,0.00,,,0.00,,2013-07-02 04:32:00,
2013-07-02 00:42:00,52.0,43.0,30.16,NE,37,0.0,2.0,71,0.00,,,0.00,,2013-07-02 04:42:00,
2013-07-02 00:53:00,52.0,41.0,30.16,NE,37,0.0,2.0,67,0.00,,,0.00,,2013-07-02 04:53:00,
2013-07-02 01:02:00,53.0,42.0,30.16,NE,37,0.0,2.0,67,0.00,,,0.00,,2013-07-02 05:02:00,
2013-07-02 01:32:00,51.0,43.0,30.16,NE,37,0.0,2.0,74,0.00,,,0.00,,2013-07-02 05:32:00,
2013-07-02 01:43:00,51.0,44.0,30.16,NE,37,0.0,2.0,76,0.00,,,0.00,,2013-07-02 05:43:00,
2013-07-02 01:53:00,51.0,44.0,30.16,NE,37,0.0,2.0,76,0.00,,,0.00,,2013-07-02 05:53:00,
2013-07-02 02:23:00,50.0,44.0,30.16,NE,35,0.0,0.0,79,0.00,,,0.00,,2013-07-02 06:23:00,
2013-07-02 02:34:00,49.0,44.0,30.16,NE,35,0.0,0.0,84,0.00,,,0.00,,2013-07-02 06:34:00,
2013-07-02 02:43:00,50.0,45.0,30.16,NE,35,0.0,2.0,84,0.00,,,0.00,,2013-07-02 06:43:00,
2013-07-02 02:53:00,50.0,46.0,30.16,NE,35,0.0,2.0,85,0.00,,,0.00,,2013-07-02 06:53:00,
2013-07-02 03:01:00,50.0,46.0,30.16,NE,37,0.0,0.0,85,0.00,,,0.00,,2013-07-02 07:01:00,
2013-07-02 03:22:00,48.0,43.0,30.15,NE,37,0.0,0.0,84,0.00,,,0.00,,2013-07-02 07:22:00,
2013-07-02 03:44:00,48.0,44.0,30.16,NE,37,0.0,0.0,85,0.00,,,0.00,,2013-07-02 07:44:00,
2013-07-02 03:53:00,48.0,44.0,30.16,NE,37,0.0,0.0,86,0.00,,,0.00,,2013-07-02 07:53:00,
2013-07-02 04:02:00,49.0,45.0,30.16,NE,37,0.0,0.0,87,0.00,,,0.00,,2013-07-02 08:02:00,
2013-07-02 04:22:00,48.0,44.0,30.16,NE,37,0.0,0.0,87,0.00,,,0.00,,2013-07-02 08:22:00,
2013-07-02 04:44:00,48.0,45.0,30.16,NE,37,0.0,0.0,89,0.00,,,0.00,,2013-07-02 08:44:00,
2013-07-02 04:53:00,48.0,45.0,30.15,NE,37,0.0,0.0,90,0.00,,,0.00,,2013-07-02 08:53:00,
2013-07-02 05:02:00,48.0,45.0,30.15,NE,37,0.0,0.0,90,0.00,,,0.00,,2013-07-02 09:02:00,
2013-07-02 05:52:00,48.0,45.0,30.17,NE,37,0.0,0.0,91,0.00,,,0.00,,2013-07-02 09:52:00,
2013-07-02 06:01:00,48.0,46.0,30.17,NE,37,0.0,2.0,92,0.00,,,0.00,,2013-07-02 10:01:00,
2013-07-02 06:11:00,48.0,46.0,30.17,NE,37,0.0,2.0,92,0.00,,,0.00,,2013-07-02 10:11:00,
2013-07-02 06:22:00,49.0,47.0,30.17,NE,37,0.0,2.0,93,0.00,,,0.00,,2013-07-02 10:22:00,
2013-07-02 06:52:00,48.0,46.0,30.17,NE,37,0.0,2.0,93,0.00,,,0.00,,2013-07-02 10:52:00,
2013-07-02 07:01:00,48.0,46.0,30.17,NE,37,0.0,0.0,94,0.00,,,0.00,,2013-07-02 11:01:00,
2013-07-02 08:01:00,49.0,47.0,30.17,NE,37,0.0,0.0,94,0.00,,,0.00,,2013-07-02 12:01:00,
2013-07-02 08:23:00,50.0,48.0,30.17,NE,37,0.0,0.0,93,0.00,,,0.00,,2013-07-02 12:23:00,
2013-07-02 08:43:00,52.0,50.0,30.18,NE,37,0.0,0.0,92,0.00,,,0.00,,2013-07-02 12:43:00,
2013-07-02 08:52:00,52.0,50.0,30.18,NE,37,0.0,0.0,92,0.00,,,0.00,,2013-07-02 12:52:00,
2013-07-02 09:01:00,52.0,50.0,30.18,NE,37,0.0,0.0,92,0.00,,,0.00,,2013-07-02 13:01:00,
2013-07-02 09:11:00,54.0,51.0,30.17,NE,37,3.0,3.0,88,0.00,,,0.00,,2013-07-02 13:11:00,
2013-07-02 09:22:00,54.0,51.0,30.17,NE,37,3.0,3.0,88,0.00,,,0.00,,2013-07-02 13:22:00,
2013-07-02 09:43:00,57.0,50.0,30.17,NNE,18,0.0,4.0,78,0.00,,,0.00,,2013-07-02 13:43:00,
2013-07-02 10:02:00,58.0,51.0,30.17,NNE,18,3.0,4.0,77,0.00,,,0.00,,2013-07-02 14:02:00,
2013-07-02 10:11:00,58.0,51.0,30.17,NNE,18,3.0,4.0,77,0.00,,,0.00,,2013-07-02 14:11:00,
2013-07-02 10:22:00,60.0,51.0,30.17,NNE,21,1.0,6.0,73,0.00,,,0.00,,2013-07-02 14:22:00,
2013-07-02 10:43:00,61.0,52.0,30.16,NNE,26,1.0,4.0,73,0.00,,,0.00,,2013-07-02 14:43:00,
2013-07-02 11:11:00,63.0,51.0,30.16,NE,37,2.0,6.0,65,0.00,,,0.00,,2013-07-02 15:11:00,
2013-07-02 11:33:00,65.0,51.0,30.16,NNE,12,4.0,8.0,60,0.00,,,0.00,,2013-07-02 15:33:00,
2013-07-02 11:44:00,65.0,51.0,30.16,NNE,12,4.0,8.0,60,0.00,,,0.00,,2013-07-02 15:44:00,
2013-07-02 11:53:00,66.0,52.0,30.16,NNE,22,3.0,8.0,60,0.00,,,0.00,,2013-07-02 15:53:00,
2013-07-02 12:01:00,67.0,51.0,30.16,NE,36,4.0,9.0,57,0.00,,,0.00,,2013-07-02 16:01:00,
2013-07-02 12:22:00,68.0,50.0,30.15,ENE,58,0.0,9.0,53,0.00,,,0.00,,2013-07-02 16:22:00,
2013-07-02 12:33:00,69.0,49.0,30.15,NE,43,3.0,9.0,49,0.00,,,0.00,,2013-07-02 16:33:00,
2013-07-02 12:43:00,70.0,48.0,30.15,North,357,2.0,10.0,46,0.00,,,0.00,,2013-07-02 16:43:00,
2013-07-02 13:02:00,70.0,50.0,30.15,North,357,6.0,10.0,49,0.00,,,0.00,,2013-07-02 17:02:00,
2013-07-02 13:12:00,70.0,50.0,30.15,North,357,6.0,10.0,49,0.00,,,0.00,,2013-07-02 17:12:00,
2013-07-02 14:02:00,72.0,46.0,30.14,NNE,19,7.0,12.0,39,0.00,,,0.00,,2013-07-02 18:02:00,
2013-07-02 14:23:00,71.0,47.0,30.14,North,4,6.0,12.0,42,0.00,,,0.00,,2013-07-02 18:23:00,
2013-07-02 14:34:00,71.0,47.0,30.14,North,4,6.0,12.0,42,0.00,,,0.00,,2013-07-02 18:34:00,
2013-07-02 14:53:00,71.0,43.0,30.14,NNE,22,9.0,12.0,36,0.00,,,0.00,,2013-07-02 18:53:00,
2013-07-02 15:12:00,71.0,46.0,30.14,ENE,58,4.0,13.0,41,0.00,,,0.00,,2013-07-02 19:12:00,
2013-07-02 15:43:00,70.0,48.0,30.14,NNE,26,7.0,11.0,46,0.00,,,0.00,,2013-07-02 19:43:00,
2013-07-02 15:53:00,70.0,48.0,30.14,NNE,26,7.0,11.0,46,0.00,,,0.00,,2013-07-02 19:53:00,
2013-07-02 16:11:00,69.0,46.0,30.14,NNE,33,8.0,10.0,44,0.00,,,0.00,,2013-07-02 20:11:00,
2013-07-02 16:22:00,69.0,48.0,30.13,NE,35,7.0,10.0,47,0.00,,,0.00,,2013-07-02 20:22:00,
2013-07-02 16:33:00,69.0,48.0,30.13,NE,35,7.0,10.0,47,0.00,,,0.00,,2013-07-02 20:33:00,
2013-07-02 16:43:00,69.0,46.0,30.13,NNE,12,7.0,13.0,44,0.00,,,0.00,,2013-07-02 20:43:00,
2013-07-02 17:11:00,69.0,44.0,30.12,NNE,14,3.0,10.0,40,0.00,,,0.00,,2013-07-02 21:11:00,
2013-07-02 17:44:00,69.0,47.0,30.12,NNE,28,5.0,11.0,45,0.00,,,0.00,,2013-07-02 21:44:00,
2013-07-02 17:52:00,70.0,46.0,30.11,NNE,15,3.0,11.0,43,0.00,,,0.00,,2013-07-02 21:52:00,
2013-07-02 18:11:00,71.0,47.0,30.11,North,0,5.0,10.0,42,0.00,,,0.00,,2013-07-02 22:11:00,
2013-07-02 18:43:00,71.0,46.0,30.10,NNE,25,6.0,9.0,41,0.00,,,0.00,,2013-07-02 22:43:00,
2013-07-02 18:53:00,71.0,46.0,30.10,NNE,28,3.0,10.0,41,0.00,,,0.00,,2013-07-02 22:53:00,
2013-07-02 19:01:00,72.0,48.0,30.10,NE,38,2.0,10.0,43,0.00,,,0.00,,2013-07-02 23:01:00,
2013-07-02 19:12:00,72.0,48.0,30.10,NNE,32,3.0,10.0,42,0.00,,,0.00,,2013-07-02 23:12:00,
2013-07-02 19:22:00,72.0,47.0,30.10,NNE,30,4.0,10.0,41,0.00,,,0.00,,2013-07-02 23:22:00,
2013-07-02 19:33:00,71.0,47.0,30.10,NNE,28,3.0,6.0,43,0.00,,,0.00,,2013-07-02 23:33:00,
2013-07-02 19:52:00,70.0,46.0,30.10,NNE,26,3.0,6.0,43,0.00,,,0.00,,2013-07-02 23:52:00,
2013-07-02 20:01:00,71.0,47.0,30.10,NNE,26,2.0,6.0,42,0.00,,,0.00,,2013-07-03 00:01:00,
2013-07-02 20:22:00,71.0,45.0,30.10,East,91,3.0,6.0,40,0.00,,,0.00,,2013-07-03 00:22:00,
2013-07-02 20:33:00,70.0,46.0,30.10,NNE,25,2.0,4.0,42,0.00,,,0.00,,2013-07-03 00:33:00,
2013-07-02 20:44:00,70.0,46.0,30.10,NNE,25,2.0,4.0,42,0.00,,,0.00,,2013-07-03 00:44:00,
2013-07-02 20:52:00,70.0,46.0,30.10,NNE,25,2.0,4.0,42,0.00,,,0.00,,2013-07-03 00:52:00,
2013-07-02 21:01:00,69.0,47.0,30.10,NNE,28,0.0,3.0,45,0.00,,,0.00,,2013-07-03 01:01:00,
2013-07-02 21:11:00,68.0,47.0,30.10,NNE,28,1.0,3.0,47,0.00,,,0.00,,2013-07-03 01:11:00,
2013-07-02 21:22:00,67.0,46.0,30.10,NNE,28,1.0,3.0,47,0.00,,,0.00,,2013-07-03 01:22:00,
2013-07-02 21:33:00,66.0,47.0,30.11,NNE,28,0.0,3.0,50,0.00,,,0.00,,2013-07-03 01:33:00,
2013-07-02 21:42:00,66.0,47.0,30.11,NE,45,0.0,3.0,51,0.00,,,0.00,,2013-07-03 01:42:00,
2013-07-02 21:56:00,65.0,46.0,30.11,NE,45,0.0,3.0,50,0.00,,,0.00,,2013-07-03 01:56:00,
2013-07-02 22:05:00,65.0,46.0,30.11,NE,45,0.0,3.0,50,0.00,,,0.00,,2013-07-03 02:05:00,
2013-07-02 22:14:00,65.0,47.0,30.11,NE,45,0.0,2.0,52,0.00,,,0.00,,2013-07-03 02:14:00,
2013-07-02 22:39:00,65.0,47.0,30.11,NE,45,0.0,2.0,52,0.00,,,0.00,,2013-07-03 02:39:00,
2013-07-02 23:06:00,61.0,48.0,30.11,NE,45,0.0,0.0,62,0.00,,,0.00,,2013-07-03 03:06:00,
2013-07-02 23:35:00,61.0,49.0,30.11,NE,45,0.0,2.0,64,0.00,,,0.00,,2013-07-03 03:35:00,
2013-07-02 23:56:00,61.0,50.0,30.10,NE,45,0.0,2.0,68,0.00,,,0.00,,2013-07-03 03:56:00,